Regional Weather Roundup
Issued by NWS

Home | Current Version | Previous Version | Graphics & Text | Print | Product List | Glossary On
Versions: 1 2 3 4 5 6 7 8 9 10 11 12 13 14 15 16 17 18 19 20 21 22 23 24 25 26 27 28
000
ASUS45 KCYS 172210
RWRWY

WYOMING REGIONAL WEATHER ROUNDUP
NATIONAL WEATHER SERVICE CHEYENNE WY
300 PM MST FRI NOV 17 2017

NOTE:  "FAIR" INDICATES FEW OR NO CLOUDS BELOW 12,000 FEET
WITH NO SIGNIFICANT WEATHER AND/OR OBSTRUCTIONS TO VISIBILITY.

WYZ001-172300-
YELLOWSTONE NATIONAL PARK

CITY           SKY/WX    TMP DP  RH WIND       PRES   REMARKS
LK YELLOWSTONE   N/A     22  15  75 W8G16     29.76R WCI  12
W YELLOWSTONE  NOT AVBL

$$
WYZ002>013-054>058-071-098>099-172300-
NORTHERN WYOMING

CITY           SKY/WX    TMP DP  RH WIND       PRES   REMARKS
JACKSON        NOT AVBL
CODY           LGT SNOW  31  26  82 SW7       29.73R WCI  24
GREYBULL       CLOUDY    40  28  62 N18G26    29.71R WCI  31
WORLAND        CLOUDY    41  34  76 CALM      29.68S
SHERIDAN       LGT RAIN  39  32  76 NW18      29.70R WCI  30
BUFFALO        CLOUDY    33  29  85 N20G26    29.69R WCI  21
GILLETTE       CLOUDY    36  32  85 W12       29.65R WCI  28
HULETT         CLOUDY    37  34  87 W3        29.65R
NEWCASTLE      MOCLDY    36  34  93 NW8       29.65S WCI  29

$$
WYZ014>020-022>026-101>103-172300-
CENTRAL WYOMING

CITY           SKY/WX    TMP DP  RH WIND       PRES   REMARKS
BIG PINEY      PTSUNNY   29  23  78 N22G29    29.78R WCI  15
PINEDALE       MOCLDY    30  18  59 W22G33    29.75S WCI  17
DUBOIS         CLOUDY    27  21  80 NW13G21   29.69R WCI  16
LANDER         NOT AVBL
RIVERTON       PTSUNNY   38  27  64 NE16G26   29.67R WCI  29
CASPER         LGT SNOW  33  32  96 N10       29.65R FOG     WCI  25
DOUGLAS        CLOUDY    45  31  58 W17G28    29.61R

$$
WYZ021-027>030-104>119-172300-
SOUTHERN WYOMING

CITY           SKY/WX    TMP DP  RH WIND       PRES   REMARKS
EVANSTON       LGT SNOW  27  23  85 W16       29.88R VSB 1   WCI  15
FORT BRIDGER   LGT SNOW  29  29 100 W17G24    29.89R WCI  17
ROCK SPRINGS   LGT SNOW  30  27  88 W25G35    29.78R FOG     WCI  16
DIXON          SNOW      33  32  97 S3        29.78F VSB 1/2
RAWLINS        LGT SNOW  33  31  92 W17       29.73R WCI  22
SARATOGA       SNOW      32  32 100 W3        29.75R VSB 1/4
LARAMIE        LGT SNOW  32  31  96 NW12      29.70R FOG     WCI  23
CHEYENNE       LGT RAIN  40  34  79 NW17G30   29.66R WCI  31
TORRINGTON     PTSUNNY   44  40  85 SW8       29.62S
PINE BLUFFS    CLOUDY    43  41  93 MISG      29.64F

$$




USA.gov is the U.S. government's official web portal to all federal, state and local government web resources and services.